This is the latest recevied weather packets stored in our database for station/object AF9W-5. If no packets are shown the sender has not sent any weather packets the latest 10 day(s).
| Time | Temp. | Humidity | Pressure | Rain* | Wind** | Luminosity | Snow |
|---|---|---|---|---|---|---|---|
| 1777680757 | 27.78° C | 21% | 1010.4 hPa | 0 mm | - | 60 W/m² | - |
| 1777680455 | 27.78° C | 22% | 1010.3 hPa | 0 mm | - | 52 W/m² | - |
| 1777680152 | 27.22° C | 21% | 1010 hPa | 0 mm | - | 60 W/m² | - |
| 1777679847 | 27.22° C | 22% | 1010.3 hPa | 0 mm | - | 51 W/m² | - |
| 1777679543 | 27.22° C | 22% | 1010.6 hPa | 0 mm | - | 61 W/m² | - |
| 1777679239 | 27.78° C | 22% | 1010 hPa | 0 mm | - | 52 W/m² | - |
| 1777678937 | 27.78° C | 21% | 1010.1 hPa | 0 mm | - | 59 W/m² | - |
| 1777678635 | 27.22° C | 22% | 1010.2 hPa | 0 mm | - | 174 W/m² | - |
| 1777678332 | 27.78° C | 22% | 1010.3 hPa | 0 mm | - | 132 W/m² | - |
| 1777678027 | 27.22° C | 22% | 1010.1 hPa | 0 mm | - | 324 W/m² | - |
| 1777677725 | 27.78° C | 22% | 1010.2 hPa | 0 mm | - | 262 W/m² | - |
| 1777677422 | 28.89° C | 21% | 1010.2 hPa | 0 mm | - | 429 W/m² | - |
| 1777677120 | 28.33° C | 21% | 1010.1 hPa | 0 mm | - | 435 W/m² | - |
| 1777676818 | 27.78° C | 22% | 1010.2 hPa | 0 mm | - | 455 W/m² | - |
| 1777676517 | 27.78° C | 23% | 1010.3 hPa | 0 mm | - | 466 W/m² | - |
| 1777675607 | 28.33° C | 21% | 1010.1 hPa | 0 mm | - | 536 W/m² | - |
| 1777675304 | 28.33° C | 21% | 1010.4 hPa | 0 mm | - | 536 W/m² | - |
| 1777675001 | 27.78° C | 21% | 1010.3 hPa | 0 mm | - | 563 W/m² | - |
| 1777674697 | 27.78° C | 21% | 1010.6 hPa | 0 mm | - | 563 W/m² | - |
| 1777674394 | 28.89° C | 21% | 1010.4 hPa | 0 mm | - | 585 W/m² | - |
| 1777674091 | 27.78° C | 21% | 1010.7 hPa | 0 mm | - | 597 W/m² | - |
| 1777673787 | 28.33° C | 21% | 1010.6 hPa | 0 mm | - | 618 W/m² | - |
| 1777673485 | 28.33° C | 21% | 1010.7 hPa | 0 mm | - | 627 W/m² | - |
| 1777673182 | 27.78° C | 22% | 1010.4 hPa | 0 mm | - | 636 W/m² | - |
| 1777672879 | 29.44° C | 21% | 1010.9 hPa | 0 mm | - | 669 W/m² | - |
* Rain latest hour (hover to see other rain measurements)
** Current wind speed in m/s (hover to see current wind gust speed)